Flag for Seychelles Weather past 2 weeks in Victoria, Seychelles

Now
81 °F

Passing clouds.


Feels Like: 86 °F
Forecast: 76 / 82 °F
Wind: 3 mph from West

Location: National Airport

Current Time: Mar 7, 2015 at 2:23:31 AM

Latest Report: Mar 7, 2015 at 12:00 AM


Visibility: N/A

Pressure: 29.92 "Hg

Humidity: 84%

Dew point: 75 °F

Location of VictoriaLocation

Historic Weather in Victoria — Graph

°F

Victoria temperature yesterday

Maximum temperature yesterday: 88 °F (at 2:00 PM)
Minimum temperature yesterday: 77 °F (at 3:00 AM)
Average temperature yesterday: 82 °F

Past Weeks' High & Low Weather Summary

 TemperatureHumidityPressure
High88 °F (Feb 22, 2:00 PM)100% (Feb 20, 3:00 AM)29.92 "Hg (Feb 20, 3:00 AM)
Low75 °F (Feb 20, 12:00 AM)62% (Feb 22, 2:00 PM)29.74 "Hg (Feb 25, 2:00 PM)
Average82 °F77%29.83 "Hg
* Reported Midnight between Feb 19 and Feb 20 — Midnight between Mar 6 and Mar 7, Victoria, Weather by CustomWeather, © 2015

Note: Actual official high and low records may vary slightly from our data, if they occured in-between our weather recording intervals... More about our weather records

Advertising

Victoria weather history for previous 24 hours

 ConditionsComfort  
Time TempWeatherWind HumidityBarometerVisibility
12:00 AM
Sat, Mar 7
81 °FPassing clouds.3 mph84%29.92 "HgN/A
11:00 PM
Fri, Mar 6
81 °FPassing clouds.3 mph84%29.92 "HgN/A
10:00 PM82 °FPassing clouds.3 mph79%29.92 "HgN/A
9:00 PM82 °FPassing clouds.6 mph79%29.92 "HgN/A
8:00 PM82 °FPassing clouds.No wind84%29.89 "HgN/A
7:00 PM82 °FPassing clouds.5 mph84%29.86 "HgN/A
6:00 PM84 °FScattered clouds.6 mph74%29.86 "HgN/A
5:00 PM86 °FScattered clouds.7 mph75%29.83 "HgN/A
4:00 PM86 °FPassing clouds.6 mph75%29.83 "HgN/A
3:00 PM86 °FPassing clouds.7 mph75%29.83 "HgN/A
2:00 PM88 °FPassing clouds.6 mph70%29.86 "HgN/A
1:00 PM86 °FPassing clouds.6 mph75%29.89 "HgN/A
12:00 PM86 °FPassing clouds.5 mph75%29.92 "HgN/A
11:00 AM86 °FPassing clouds.6 mph75%29.92 "HgN/A
10:00 AM86 °FPassing clouds.6 mph66%29.92 "HgN/A
9:00 AM84 °FPassing clouds.6 mph79%29.92 "HgN/A
8:00 AM82 °FScattered clouds.7 mph84%29.92 "HgN/A
7:00 AM77 °FScattered clouds.3 mph89%29.89 "HgN/A
6:00 AM77 °FPassing clouds.No wind89%29.86 "HgN/A
5:00 AM77 °FPassing clouds.No wind89%29.86 "HgN/A
4:00 AM79 °FPassing clouds.No wind84%29.83 "HgN/A
3:00 AM77 °FPassing clouds.No wind89%29.86 "HgN/A
2:00 AM79 °FPassing clouds.No wind84%29.86 "HgN/A
Weather by CustomWeather, © 2015

See weather overviewHow to use our weather pages